Tracking 28790 objects as of 18-Apr-2024
HD Live streaming from Space Station
objects crossing your sky now

STARLINK-1128

Track STARLINK-1128 now!
10-day predictions
STARLINK-1128 is classified as:


NORAD ID: 44931
Int'l Code: 2020-001T
Perigee: 453.9 km
Apogee: 469.2 km
Inclination: 53.0 °
Period: 93.7 minutes
Semi major axis: 6832 km
RCS: Unknown
Launch date: January 7, 2020
Source: United States (US)
Launch site: AIR FORCE EASTERN TEST RANGE (AFETR)
Your satellite tracking list
Your tracking list is empty




NASA's NSSDC Master Catalog

Two Line Element Set (TLE):
1 44931U 20001T   24109.91668981  .00197668  00000-0  52137-2 0  9995
2 44931  53.0480 162.4134 0011194 349.1722 249.4135 15.37185918237208
Source of the keplerian elements: AFSPC